Theta_e
345 344 346 350 348 348 349 352 351 347 350 348 351 351 345 349 348 348 345 345 345 347 346 351 352 353 352 344 350 352 351 350 346 346 345 345 344 344 345 347 350 350 349
344 344 349 352 348 348 346 350 349 351 352 352 353 351 349 348 349 348 348 349 350 352 349 353 353 352 353 351 346 349 352 350 348 347 351 351 349 347 346 351 351 349 349
344 344 350 351 348 348 348 349 352 353 353 346 349 353 353 349 348 350 351 353 352 354 353 351 353 352 352 350 346 346 340 346 350 352 349 348 349 347 348 350 350 349 348
345 347 349 348 351 348 348 345 353 349 350 345 352 351 350 354 353 354 352 352 354 354 352 352 352 350 351 349 349 344 345 346 343 347 345 347 349 350 351 348 348 348 349
349 345 350 349 350 347 348 349 351 352 350 349 346 353 352 353 352 352 354 353 351 352 352 352 350 349 346 345 345 345 345 345 344 345 345 344 344 349 349 350 349 349 347
351 346 348 351 351 352 349 350 351 353 350 353 351 354 353 354 350 349 353 352 350 353 352 349 352 352 348 344 342 342 344 346 348 345 347 346 340 349 350 349 350 350 349
352 343 346 350 351 354 352 348 351 348 352 349 354 353 354 352 353 353 353 351 349 348 350 353 352 349 343 335 330 333 340 345 345 345 345 346 339 347 351 350 350 349 347
348 347 349 351 350 352 346 350 353 349 350 349 351 352 349 353 354 353 353 352 352 347 346 349 347 348 348 343 337 331 341 343 346 346 343 345 341 346 351 350 349 349 346
350 349 350 354 352 350 347 349 353 349 343 347 354 354 354 348 350 350 351 353 350 350 352 347 348 349 348 347 342 335 337 339 346 344 337 342 340 344 350 349 349 349 348
350 352 346 349 352 350 349 348 351 349 347 350 349 349 352 352 352 345 347 344 351 352 352 352 350 347 351 350 344 339 338 338 344 344 344 342 337 341 346 350 349 349 348
351 349 355 351 347 347 350 348 347 349 349 345 339 340 346 344 342 338 344 343 335 337 347 351 350 347 346 344 343 340 338 336 344 344 345 344 338 339 342 344 348 348 347
352 351 351 352 352 350 348 345 339 338 343 341 337 334 336 346 349 344 338 334 336 340 343 344 345 345 347 340 341 344 337 332 337 342 342 342 340 340 337 337 345 347 347
349 351 349 348 350 351 351 337 339 341 340 343 346 348 348 349 348 345 337 339 345 344 343 343 346 344 343 343 342 344 346 340 336 341 342 344 338 336 333 339 339 346 348
345 347 347 347 347 350 350 348 347 347 348 348 347 349 349 350 348 342 338 342 345 345 340 343 345 346 345 346 345 345 347 346 346 346 342 345 342 341 334 332 330 339 346
344 344 345 345 346 348 348 349 351 349 350 349 348 345 347 351 346 344 343 347 347 347 344 342 347 346 347 346 346 346 345 346 346 345 345 345 344 342 342 342 338 331 338
342 343 346 346 345 348 348 349 346 350 351 351 350 350 349 350 351 351 347 348 348 348 349 347 345 347 346 348 347 346 347 347 347 347 347 346 345 343 343 342 341 340 339
341 342 345 345 344 344 345 346 347 346 349 349 351 351 350 352 350 352 351 349 349 349 349 348 347 348 344 344 347 346 348 349 349 347 346 346 345 344 344 344 344 342 339
346 344 345 352 347 348 349 348 347 346 347 349 351 350 351 349 350 351 351 349 349 352 350 350 349 348 348 345 347 348 348 346 348 348 347 347 346 346 345 344 344 344 341
344 342 346 349 354 351 352 353 352 352 352 351 350 351 351 350 350 351 352 352 351 353 353 351 351 351 350 348 348 349 349 347 343 346 347 348 347 347 345 347 346 344 343
347 341 340 341 348 355 352 355 356 355 354 353 352 353 352 351 353 351 351 352 351 352 352 353 352 351 352 349 350 347 351 348 346 343 346 348 348 346 347 347 348 346 345
347 344 342 343 340 355 354 353 355 354 355 356 356 352 344 341 350 352 350 351 351 354 354 354 353 353 353 351 350 350 350 350 348 348 344 348 349 348 349 349 348 349 348
349 348 347 345 345 352 357 356 356 355 350 351 353 351 342 340 343 349 347 347 347 350 349 351 353 353 352 351 350 349 350 351 351 349 349 348 351 349 348 348 349 349 348
349 351 350 349 343 343 355 357 358 356 353 351 351 348 350 350 351 351 350 350 352 350 352 352 351 351 352 351 351 349 350 352 351 351 347 347 349 352 352 348 350 349 348
355 355 355 351 354 356 357 359 357 356 353 353 349 349 351 351 351 353 350 354 352 350 351 353 350 350 349 351 351 351 349 351 349 349 349 346 347 351 351 349 350 350 350
361 362 363 363 363 359 360 358 357 356 355 356 355 351 353 352 353 349 350 350 346 352 351 350 349 348 350 350 352 351 351 350 351 349 350 351 348 347 350 351 350 350 350
358 361 362 362 363 363 360 355 358 355 355 355 351 351 350 349 347 345 343 349 344 346 348 350 350 348 349 350 351 352 351 351 350 349 349 348 350 350 349 350 351 351 351
Wind_Speed
24 22 19 19 21 19 18 16 17 18 18 18 19 19 20 21 19 17 16 16 14 14 13 12 12 11 12 11 13 14 14 14 15 16 17 18 17 15 14 15 17 16 17
31 24 20 22 22 19 19 17 17 17 16 15 16 18 17 17 16 15 13 14 13 14 14 12 11 11 11 12 13 14 14 14 14 14 15 14 13 12 13 15 16 16 16
31 26 22 23 22 19 19 18 18 17 16 14 15 16 16 15 15 14 15 15 14 13 13 13 11 10 10 11 13 13 14 13 12 14 14 13 13 13 16 15 16 15 15
30 26 24 22 21 20 19 19 17 15 15 15 17 16 16 14 15 15 14 14 13 13 12 12 11 11 9 10 11 12 13 12 9 15 11 12 11 12 13 15 16 16 14
27 24 24 21 21 19 18 19 17 15 14 15 15 15 14 14 14 14 14 13 13 12 11 11 10 9 8 9 9 11 13 10 9 7 11 13 12 11 12 14 15 14 15
29 23 25 22 20 20 18 18 17 16 14 15 14 13 13 14 13 13 14 12 10 11 9 11 10 9 8 8 8 8 8 6 5 7 11 15 12 13 12 12 13 14 15
30 24 24 22 21 20 18 18 16 14 14 13 12 13 12 12 12 12 11 10 9 8 8 9 8 8 6 8 7 7 6 4 4 10 12 11 14 13 12 11 13 13 14
28 26 25 21 21 20 19 17 15 14 12 11 11 10 10 11 11 10 9 9 8 7 7 7 7 6 6 4 4 5 4 5 8 15 14 12 13 14 12 12 12 12 12
29 27 26 23 21 19 20 18 14 11 11 11 10 9 8 8 9 9 9 7 6 6 6 4 5 6 5 3 2 4 6 1 2 0 11 13 12 13 13 12 12 12 13
26 25 24 23 22 20 18 18 15 11 11 10 10 9 10 9 8 7 7 6 7 5 5 5 4 5 6 7 6 5 6 6 2 2 7 12 12 13 13 13 12 13 12
26 23 22 21 21 20 19 18 17 15 13 10 10 9 9 8 7 7 6 5 4 6 7 6 7 7 8 10 11 10 8 8 6 5 7 13 12 12 14 14 13 13 14
31 29 23 21 20 21 18 19 17 15 15 13 11 11 10 11 12 9 9 8 8 8 9 8 9 10 11 13 13 13 13 12 11 10 15 14 13 14 14 15 14 13 12
35 33 28 24 24 26 23 17 16 17 15 13 13 12 12 13 18 13 11 9 9 7 9 10 9 15 15 14 13 15 19 14 15 16 14 18 20 17 16 17 17 16 15
31 33 33 29 27 29 27 18 17 19 18 18 17 18 17 17 16 15 13 12 12 12 10 12 15 12 15 16 15 15 17 19 17 11 20 21 20 21 19 18 18 19 18
24 24 31 31 27 27 27 20 18 22 24 22 20 20 19 20 19 13 12 13 13 13 13 12 12 13 14 15 17 19 21 17 19 17 13 19 21 25 18 19 19 20 21
23 15 29 31 26 23 21 15 14 2 19 23 23 22 21 21 19 13 13 14 13 12 14 14 17 16 17 17 19 19 21 20 22 19 19 19 21 26 23 21 20 21 22
24 21 24 25 23 20 19 18 14 9 6 10 18 21 22 20 18 16 15 14 15 13 14 17 18 20 21 18 18 19 17 18 18 22 23 20 25 26 27 22 23 24 25
27 24 21 12 19 15 11 14 13 14 12 9 13 17 20 18 17 17 16 14 14 13 15 17 22 21 20 21 20 21 20 25 24 21 20 23 25 29 30 27 29 26 28
28 22 22 12 14 17 11 12 12 11 13 15 15 13 16 18 25 22 16 14 14 15 15 18 18 19 20 17 23 22 24 24 24 26 24 20 28 26 27 33 35 29 26
27 8 20 20 14 21 13 18 14 12 16 14 16 8 3 12 16 21 17 11 11 9 16 18 24 25 27 23 17 22 27 24 26 25 27 26 25 28 25 28 26 31 29
31 17 17 25 19 17 16 17 13 14 14 15 17 6 6 6 8 6 8 9 11 6 10 17 20 21 26 28 20 21 27 29 29 28 28 28 32 29 23 25 29 30 33
35 25 23 28 25 19 16 14 12 5 14 15 18 10 10 10 10 5 3 6 7 9 11 12 15 18 23 25 17 7 3 8 24 32 29 30 27 31 34 30 32 33 32
31 30 27 24 26 21 16 12 10 8 8 4 6 12 9 9 9 8 4 4 8 13 14 15 17 17 20 23 24 13 3 4 2 11 30 28 29 28 32 32 32 35 34
34 31 26 25 24 19 18 11 10 4 3 2 8 12 9 9 10 7 8 7 8 14 12 14 20 17 18 19 19 33 30 10 3 3 10 23 23 24 30 29 31 35 34
31 29 25 23 23 19 17 7 8 5 5 4 2 0 4 14 6 4 3 7 13 13 14 17 20 20 20 20 21 18 27 31 26 4 3 4 13 22 22 26 33 32 34
31 29 25 21 19 14 12 8 4 2 2 2 4 7 12 18 13 10 11 12 19 17 18 18 20 22 23 21 19 23 22 10 18 14 5 8 6 14 16 19 23 29 29
Wind_Direction
150 146 136 137 142 128 120 112 112 110 105 104 101 99 104 96 99 105 112 113 114 118 117 110 108 110 110 109 105 99 107 109 109 110 111 109 108 114 116 119 115 114 112
148 143 132 136 143 131 122 116 117 110 110 104 106 104 108 109 104 98 106 125 107 111 115 111 109 107 107 101 103 110 104 101 104 110 106 102 110 121 134 123 120 117 114
142 140 134 138 141 137 129 125 119 110 106 106 111 111 111 108 106 106 106 115 111 109 111 113 110 108 105 100 105 106 104 111 114 118 113 112 100 112 120 124 120 119 117
142 140 138 138 138 138 133 126 118 119 113 108 110 112 113 113 110 106 108 112 112 112 115 116 116 115 110 110 112 108 103 102 130 140 106 107 109 113 120 123 124 124 127
135 145 140 139 143 138 134 130 128 124 121 120 115 116 115 114 110 112 111 109 113 114 120 114 110 107 115 115 114 118 113 108 103 114 144 141 130 128 132 127 127 129 129
147 146 143 141 140 137 140 136 129 124 119 121 119 119 117 114 113 120 117 115 119 117 118 117 122 118 115 118 123 128 128 138 153 114 144 156 144 138 134 132 136 139 137
148 144 145 146 145 141 141 136 127 129 127 124 123 121 121 121 121 119 123 123 122 125 130 129 124 127 118 114 127 143 145 81 309 164 149 159 151 147 148 148 145 143 140
143 142 141 144 144 144 144 137 137 141 134 127 121 122 124 130 130 134 133 137 135 127 132 143 157 155 156 139 118 164 171 77 83 161 152 168 162 154 155 157 152 149 148
140 142 146 145 149 154 151 148 146 154 153 140 137 140 146 137 143 142 140 138 136 148 151 150 166 178 198 204 212 189 205 151 125 248 155 158 163 160 160 159 159 156 160
140 144 147 153 154 159 161 161 158 164 164 157 157 159 158 155 150 148 150 151 158 172 174 185 197 216 228 232 240 232 213 217 206 194 206 183 174 171 169 165 165 165 161
140 148 155 155 160 164 163 169 181 182 182 186 187 189 185 189 192 177 170 190 216 206 198 207 223 227 239 250 253 245 235 226 227 231 192 198 185 195 179 173 176 175 170
150 156 161 165 168 169 174 180 185 189 194 197 199 196 192 188 211 214 229 242 263 240 226 223 238 240 241 246 254 257 249 236 235 248 207 192 205 201 188 184 185 184 183
160 163 171 168 172 178 179 179 191 195 197 198 200 206 211 206 212 229 244 251 250 235 237 234 258 246 246 258 253 258 260 256 242 242 225 201 217 212 202 197 190 189 196
167 172 178 174 178 184 191 194 193 199 205 206 204 217 216 221 225 236 251 235 244 252 270 240 245 262 249 243 246 256 249 251 248 261 230 212 232 219 214 203 201 198 202
169 176 176 175 177 186 187 198 209 215 215 216 209 213 223 228 235 246 242 247 246 254 261 251 246 244 244 257 253 249 253 255 247 245 239 219 240 224 225 223 219 207 205
168 174 163 167 171 166 180 192 209 159 220 224 227 225 223 228 233 239 246 251 254 252 246 252 249 248 246 251 256 254 253 249 247 252 250 248 217 217 232 229 231 228 214
173 171 158 173 182 194 213 218 224 229 207 217 217 220 224 223 230 235 247 256 253 255 249 244 245 249 249 251 249 245 244 246 253 256 251 251 223 223 227 232 236 235 232
151 161 167 141 186 192 215 225 227 226 228 278 228 230 236 239 240 237 248 256 257 256 255 250 247 250 254 253 257 253 249 249 252 251 250 246 236 235 230 241 238 234 233
150 179 193 190 162 186 200 208 214 222 254 263 265 256 236 263 261 240 247 255 255 252 253 255 253 248 246 246 249 256 256 253 256 252 253 254 245 231 241 249 241 231 235
184 179 205 198 174 204 209 205 214 226 240 253 261 279 181 260 263 255 247 265 270 254 257 253 251 252 249 256 243 248 258 260 260 255 247 245 245 241 240 247 234 232 234
180 187 195 196 193 193 194 192 212 225 238 248 257 266 319 316 328 311 259 256 278 322 289 276 271 262 260 249 246 250 257 262 261 258 249 248 247 243 238 231 228 229 233
186 194 202 205 203 197 190 188 215 204 244 239 264 257 285 322 340 330 315 328 340 338 330 309 298 283 267 266 225 227 278 272 252 249 250 244 250 244 243 238 236 235 232
183 187 191 199 201 202 195 202 215 220 150 167 213 227 268 324 324 329 311 349 341 337 323 326 323 306 287 273 242 204 217 233 251 242 239 239 239 247 247 241 246 238 235
177 182 178 182 194 197 196 196 198 164 199 255 244 244 261 310 312 352 330 315 314 322 320 316 330 316 315 274 260 228 226 249 218 303 239 238 236 242 244 242 243 239 236
160 167 165 176 188 180 187 161 179 181 203 324 182 348 304 329 293 339 346 321 338 343 336 331 331 326 319 295 257 232 226 235 251 245 284 261 241 251 247 246 239 242 243
145 148 156 160 164 175 185 185 165 146 170 19 31 27 28 86 79 59 29 17 7 357 343 330 327 334 326 326 287 255 227 217 225 232 244 252 241 267 262 264 251 254 259